EW8041 Weather Reports


Display with metric or nautical units.
time (UTC)temp
F
wind
direction
speed
MPH
gust
MPH
rain 1hr
in
rain 24hr
in
rain mn
in
humidity
%
barometer
mb
20260906084529 73 47 1.0 4.0 0.00 0.12 0.10 85 1012.1
20260906083525 73 64 2.0 7.0 0.00 0.11 0.10 85 1011.7
20260906082540 73 129 1.0 3.0 0.01 0.11 0.10 87 1012.0
20260906081537 73 110 1.0 7.0 0.05 0.11 0.10 89 1012.2
20260906080533 73 117 0.0 2.0 0.05 0.11 0.10 89 1012.5
20260906075528 73 77 5.0 10.0 0.10 0.11 0.10 93 1012.9
20260906074524 73 57 1.0 4.0 0.10 0.11 0.10 93 1013.2
20260906073520 74 14 2.0 13.0 0.10 0.11 0.10 93 1013.4
20260906072517 75 27 2.0 9.0 0.09 0.11 0.09 91 1013.5
20260906071533 76 64 3.0 8.0 0.05 0.07 0.05 89 1013.5
20260906070529 77 7 1.0 8.0 0.05 0.06 0.05 83 1013.3
20260906065525 78 54 1.0 2.0 0.00 0.02 0.00 79 1013.0
20260906064521 79 77 1.0 2.0 0.00 0.02 0.00 78 1013.1
20260906063516 80 57 1.0 3.0 0.00 0.02 0.00 77 1012.9
20260906062532 80 54 0.0 4.0 0.00 0.02 0.00 74 1012.9
20260906061528 81 158 2.0 8.0 0.00 0.02 0.00 69 1012.8
20260906060524 81 258 2.0 7.0 0.00 0.02 0.00 70 1012.1
20260906055520 81 116 2.0 8.0 0.00 0.02 0.00 74 1012.3
20260906054516 81 51 2.0 7.0 0.00 0.02 0.00 79 1012.7
20260906053532 80 101 0.0 1.0 0.00 0.02 0.00 82 1012.7
20260906052528 80 50 2.0 6.0 0.00 0.02 0.00 83 1012.7
20260906051544 79 0.0 0.0 0.00 0.02 0.00 91 1012.7
20260906050540 79 0.0 0.0 0.00 0.02 0.00 88 1012.2
20260906045535 79 0.0 0.0 0.00 0.02 0.02 88 1012.0
20260906044531 79 0.0 0.0 0.00 0.02 0.02 88 1012.4
20260906043527 79 0.0 0.0 0.00 0.02 0.02 88 1012.4
20260906042523 79 5 0.0 1.0 0.00 0.02 0.02 88 1012.5
20260906041518 79 0 0.0 1.0 0.00 0.02 0.02 88 1012.6
20260906040534 79 359 0.0 1.0 0.00 0.02 0.02 88 1012.5
20260906035530 79 0.0 0.0 0.00 0.02 0.02 87 1012.8
20260906034526 79 0 0.0 1.0 0.00 0.02 0.02 87 1012.6
20260906033522 79 4 0.0 1.0 0.00 0.02 0.02 86 1012.6
20260906032538 79 5 0.0 1.0 0.00 0.02 0.02 86 1012.7
20260906031553 80 1 0.0 1.0 0.00 0.02 0.02 85 1012.5
20260906030529 80 0.0 0.0 0.00 0.02 0.02 86 1012.4
20260906025525 80 1 0.0 1.0 0.00 0.02 0.02 86 1012.4
20260906024520 80 19 1.0 3.0 0.00 0.02 0.02 86 1012.4
20260906023516 80 25 0.0 1.0 0.00 0.02 0.02 85 1012.2
20260906022531 80 32 1.0 3.0 0.00 0.02 0.02 86 1012.1
20260906021527 80 56 0.0 1.0 0.00 0.02 0.02 84 1012.0
20260906020523 80 56 0.0 1.0 0.00 0.02 0.02 83 1011.8
20260906015519 80 0.0 0.0 0.00 0.02 0.02 83 1011.7
20260906014554 80 0.0 0.0 0.00 0.02 0.02 82 1011.6
20260906013530 80 0.0 0.0 0.00 0.02 0.02 82 1011.4
20260906012525 80 0.0 0.0 0.00 0.02 0.02 82 1011.3
20260906011520 80 56 0.0 1.0 0.00 0.02 0.02 81 1011.3
20260906010536 80 65 0.0 1.0 0.00 0.02 0.02 81 1011.2
20260906005532 80 0.0 0.0 0.00 0.02 0.02 81 1011.2
20260906004528 80 0.0 0.0 0.02 0.02 0.02 80 1011.2
20260906003544 80 77 1.0 1.0 0.02 0.02 0.02 79 1011.1
20260906002540 80 76 0.0 1.0 0.02 0.02 0.02 79 1011.1
20260906001516 81 77 1.0 2.0 0.02 0.02 0.02 78 1011.4
20260906000532 82 70 2.0 4.0 0.02 0.02 0.02 75 1012.0
20260905235528 85 261 2.0 7.0 0.02 0.02 0.02 72 1012.3
20260905234524 90 277 4.0 14.0 0.00 0.00 0.00 65 1011.7
20260905233600 91 53 1.0 2.0 0.00 0.00 0.00 57 1011.3
20260905232535 93 77 2.0 7.0 0.00 0.00 0.00 55 1010.9
20260905231531 94 75 1.0 8.0 0.00 0.00 0.00 54 1010.8
20260905230527 95 297 1.0 4.0 0.00 0.00 0.00 53 1010.8
20260905225523 96 297 1.0 4.0 0.00 0.00 0.00 52 1010.5
20260905224519 97 299 0.0 1.0 0.00 0.00 0.00 50 1010.5
20260905223554 97 299 0.0 2.0 0.00 0.00 0.00 50 1010.7
20260905222530 97 299 1.0 3.0 0.00 0.00 0.00 49 1010.5
20260905221526 98 299 0.0 1.0 0.00 0.00 0.00 48 1010.6
20260905220522 98 299 0.0 1.0 0.00 0.00 0.00 48 1010.6
20260905215517 99 299 0.0 3.0 0.00 0.00 0.00 48 1010.7
20260905214534 99 299 1.0 3.0 0.00 0.00 0.00 48 1010.7
20260905213549 99 89 2.0 7.0 0.00 0.00 0.00 48 1010.7
20260905212525 99 336 1.0 2.0 0.00 0.00 0.00 49 1010.8
20260905211521 99 335 1.0 3.0 0.00 0.00 0.00 48 1010.7
20260905210516 99 336 1.0 3.0 0.00 0.00 0.00 48 1010.8
20260905205533 99 33 1.0 4.0 0.00 0.00 0.00 48 1010.7
20260905204548 99 281 2.0 7.0 0.00 0.00 0.00 48 1010.9
20260905203524 100 312 1.0 6.0 0.00 0.00 0.00 47 1011.1
20260905202520 101 272 2.0 3.0 0.00 0.00 0.00 47 1011.1
20260905201536 101 272 0.0 2.0 0.00 0.02 0.00 48 1011.4
20260905200532 100 272 2.0 7.0 0.00 0.10 0.00 48 1011.5
20260905195547 100 272 1.0 3.0 0.00 0.11 0.00 50 1011.8
20260905194522 100 282 1.0 3.0 0.00 0.11 0.00 48 1011.9
20260905193558 100 282 3.0 9.0 0.00 0.11 0.00 50 1012.0
20260905192554 100 291 1.0 6.0 0.00 0.11 0.00 50 1012.0
20260905191530 99 291 1.0 3.0 0.00 0.11 0.00 49 1012.2
20260905190546 99 291 2.0 6.0 0.00 0.11 0.00 50 1012.5
20260905185522 98 46 0.0 1.0 0.00 0.11 0.00 50 1012.5
20260905184518 98 312 2.0 7.0 0.00 0.11 0.00 53 1012.6
20260905183534 98 287 1.0 3.0 0.00 0.11 0.00 54 1012.9
20260905182530 97 293 2.0 6.0 0.00 0.11 0.00 55 1013.0
20260905181546 97 328 1.0 2.0 0.00 0.11 0.00 53 1013.1
20260905180524 98 140 1.0 3.0 0.00 0.11 0.00 55 1013.3
20260905175517 97 141 1.0 2.0 0.00 0.11 0.00 55 1013.3
20260905174613 96 135 1.0 3.0 0.00 0.11 0.00 56 1013.4
20260905173529 96 286 2.0 4.0 0.00 0.11 0.00 55 1013.5
20260905172525 96 287 1.0 6.0 0.00 0.11 0.00 58 1013.6
20260905171521 95 293 1.0 3.0 0.00 0.11 0.00 60 1013.8
20260905170517 95 250 1.0 4.0 0.00 0.11 0.00 61 1013.8
20260905165554 94 221 1.0 6.0 0.00 0.11 0.00 60 1013.9
20260905164530 94 222 1.0 3.0 0.00 0.11 0.00 63 1014.1
20260905163546 94 282 1.0 6.0 0.00 0.11 0.00 62 1014.2
20260905162521 93 276 2.0 3.0 0.00 0.11 0.00 64 1014.4
20260905161518 93 276 1.0 2.0 0.00 0.11 0.00 64 1014.5
20260905160534 92 276 1.0 1.0 0.00 0.11 0.00 65 1014.5
20260905155530 91 276 1.0 3.0 0.00 0.11 0.00 66 1014.7
20260905154546 91 276 1.0 2.0 0.00 0.11 0.00 68 1014.7
20260905153541 90 276 0.0 2.0 0.00 0.11 0.00 69 1014.7
20260905152518 90 276 1.0 3.0 0.00 0.11 0.00 71 1014.8
20260905151534 89 276 1.0 3.0 0.00 0.11 0.00 72 1014.6
20260905150529 88 276 1.0 3.0 0.00 0.11 0.00 75 1014.7
20260905145525 86 276 1.0 2.0 0.00 0.11 0.00 77 1014.7
20260905144521 86 276 0.0 1.0 0.00 0.11 0.00 77 1014.9
20260905143517 85 276 0.0 1.0 0.00 0.11 0.00 78 1014.7
20260905142534 85 276 1.0 2.0 0.00 0.11 0.00 81 1015.0
20260905141529 84 276 1.0 1.0 0.00 0.11 0.00 82 1015.1
20260905140545 83 276 0.0 1.0 0.00 0.11 0.00 84 1015.0
20260905135521 82 276 0.0 1.0 0.00 0.11 0.00 86 1015.1
20260905134516 81 276 0.0 1.0 0.00 0.11 0.00 89 1015.2
20260905133532 80 276 0.0 1.0 0.00 0.11 0.00 90 1015.3
20260905132527 79 276 0.0 1.0 0.00 0.11 0.00 91 1015.2
20260905131523 78 277 0.0 1.0 0.00 0.11 0.00 93 1015.3
20260905130519 78 277 1.0 1.0 0.00 0.11 0.00 94 1015.2
20260905125535 77 277 0.0 2.0 0.00 0.11 0.00 96 1015.3
20260905124531 76 0.0 0.0 0.00 0.11 0.00 97 1015.3
20260905123527 76 277 0.0 1.0 0.00 0.11 0.00 97 1015.3
20260905122543 75 0.0 0.0 0.00 0.11 0.00 98 1015.3
20260905121519 74 277 0.0 1.0 0.00 0.11 0.00 97 1015.2
20260905120555 74 0.0 0.0 0.00 0.11 0.00 97 1014.9
20260905115532 74 0.0 0.0 0.00 0.11 0.00 96 1014.8
20260905114528 74 0.0 0.0 0.00 0.11 0.00 96 1014.6
20260905113523 74 0.0 0.0 0.00 0.11 0.00 96 1014.6
20260905112539 74 0.0 0.0 0.00 0.11 0.00 96 1014.4
20260905111535 74 277 0.0 1.0 0.00 0.11 0.00 96 1014.2
20260905110531 74 0.0 0.0 0.00 0.11 0.00 95 1014.1
20260905105547 74 0.0 0.0 0.00 0.11 0.00 95 1014.2
20260905104524 74 0.0 0.0 0.00 0.11 0.00 95 1014.1
20260905103520 74 0.0 0.0 0.00 0.11 0.00 95 1013.9
20260905102515 74 277 0.0 1.0 0.00 0.11 0.00 95 1013.8
20260905101532 74 0.0 0.0 0.00 0.11 0.00 95 1013.7
20260905100528 74 0.0 0.0 0.00 0.11 0.00 95 1013.7
20260905095604 74 0.0 0.0 0.00 0.11 0.00 94 1013.6
20260905094520 74 0.0 0.0 0.00 0.11 0.00 94 1013.7
20260905093536 74 0.0 0.0 0.00 0.11 0.00 94 1013.6
20260905092532 75 0.0 0.0 0.00 0.11 0.00 93 1013.6
20260905091528 75 0.0 0.0 0.00 0.11 0.00 93 1013.6
20260905090524 75 0.0 0.0 0.00 0.11 0.00 93 1013.5
20260905085520 75 0.0 0.0 0.00 0.11 0.00 93 1013.5